Year,Month,Day,Hour,Minute,Value (Times are PST for temperature in C)
2013,08,04,00,00,17.20
2013,08,04,00,01,17.10
2013,08,04,00,02,17.10
2013,08,04,00,03,17.10
2013,08,04,00,04,17.10
2013,08,04,00,05,17.10
2013,08,04,00,06,17.10
2013,08,04,00,07,17.10
2013,08,04,00,08,17.10
2013,08,04,00,09,17.10
2013,08,04,00,10,17.10
2013,08,04,00,11,17.10
2013,08,04,00,12,17.10
2013,08,04,00,13,17.10
2013,08,04,00,14,17.00
2013,08,04,00,15,17.00
2013,08,04,00,16,17.00
2013,08,04,00,17,17.00
2013,08,04,00,18,17.00
2013,08,04,00,19,17.00
2013,08,04,00,20,17.00
2013,08,04,00,21,16.90
2013,08,04,00,22,16.90
2013,08,04,00,23,16.90
2013,08,04,00,24,16.90
2013,08,04,00,25,16.90
2013,08,04,00,26,16.90
2013,08,04,00,27,16.90
2013,08,04,00,28,16.80
2013,08,04,00,29,16.80
2013,08,04,00,30,16.80
2013,08,04,00,31,16.80
2013,08,04,00,32,16.80
2013,08,04,00,33,16.80
2013,08,04,00,34,16.80
2013,08,04,00,35,16.70
2013,08,04,00,36,16.70
2013,08,04,00,37,16.70
2013,08,04,00,38,16.70
2013,08,04,00,39,16.70
2013,08,04,00,40,16.60
2013,08,04,00,41,16.60
2013,08,04,00,42,16.60
2013,08,04,00,43,16.60
2013,08,04,00,44,16.60
2013,08,04,00,45,16.60
2013,08,04,00,46,16.60
2013,08,04,00,47,16.50
2013,08,04,00,48,16.50
2013,08,04,00,49,16.50
2013,08,04,00,50,16.50
2013,08,04,00,51,16.50
2013,08,04,00,52,16.50
2013,08,04,00,53,16.50
2013,08,04,00,54,16.50
2013,08,04,00,55,16.50
2013,08,04,00,56,16.40
2013,08,04,00,57,16.40
2013,08,04,00,58,16.40
2013,08,04,00,59,16.40
2013,08,04,01,00,16.30
2013,08,04,01,01,16.30
2013,08,04,01,02,16.30
2013,08,04,01,03,16.20
2013,08,04,01,04,16.20
2013,08,04,01,05,16.20
2013,08,04,01,06,16.10
2013,08,04,01,07,16.10
2013,08,04,01,08,16.10
2013,08,04,01,09,16.00
2013,08,04,01,10,16.00
2013,08,04,01,11,16.00
2013,08,04,01,12,16.00
2013,08,04,01,13,15.90
2013,08,04,01,14,15.90
2013,08,04,01,15,15.90
2013,08,04,01,16,15.80
2013,08,04,01,17,15.80
2013,08,04,01,18,15.80
2013,08,04,01,19,15.80
2013,08,04,01,20,15.80
2013,08,04,01,21,15.80
2013,08,04,01,22,15.70
2013,08,04,01,23,15.70
2013,08,04,01,24,15.70
2013,08,04,01,25,15.70
2013,08,04,01,26,15.70
2013,08,04,01,27,15.60
2013,08,04,01,28,15.60
2013,08,04,01,29,15.60
2013,08,04,01,30,15.60
2013,08,04,01,31,15.50
2013,08,04,01,32,15.50
2013,08,04,01,33,15.50
2013,08,04,01,34,15.50
2013,08,04,01,35,15.40
2013,08,04,01,36,15.40
2013,08,04,01,37,15.40
2013,08,04,01,38,15.40
2013,08,04,01,39,15.40
2013,08,04,01,40,15.40
2013,08,04,01,41,15.40
2013,08,04,01,42,15.40
2013,08,04,01,43,15.30
2013,08,04,01,44,15.30
2013,08,04,01,45,15.30
2013,08,04,01,46,15.30
2013,08,04,01,47,15.30
2013,08,04,01,48,15.30
2013,08,04,01,49,15.30
2013,08,04,01,50,15.30
2013,08,04,01,51,15.30
2013,08,04,01,52,15.20
2013,08,04,01,53,15.20
2013,08,04,01,54,15.20
2013,08,04,01,55,15.20
2013,08,04,01,56,15.20
2013,08,04,01,57,15.20
2013,08,04,01,58,15.20
2013,08,04,01,59,15.10
2013,08,04,02,00,15.10
2013,08,04,02,01,15.10
2013,08,04,02,02,15.10
2013,08,04,02,03,15.10
2013,08,04,02,04,15.10
2013,08,04,02,05,15.10
2013,08,04,02,06,15.10
2013,08,04,02,07,15.10
2013,08,04,02,08,15.10
2013,08,04,02,09,15.10
2013,08,04,02,10,15.10
2013,08,04,02,11,15.10
2013,08,04,02,12,15.10
2013,08,04,02,13,15.10
2013,08,04,02,14,15.10
2013,08,04,02,15,15.10
2013,08,04,02,16,15.10
2013,08,04,02,17,15.10
2013,08,04,02,18,15.10
2013,08,04,02,19,15.10
2013,08,04,02,20,15.00
2013,08,04,02,21,15.00
2013,08,04,02,22,15.00
2013,08,04,02,23,15.00
2013,08,04,02,24,14.90
2013,08,04,02,25,14.90
2013,08,04,02,26,14.90
2013,08,04,02,27,14.90
2013,08,04,02,28,14.90
2013,08,04,02,29,14.90
2013,08,04,02,30,14.90
2013,08,04,02,31,14.90
2013,08,04,02,32,15.00
2013,08,04,02,33,14.90
2013,08,04,02,34,14.90
2013,08,04,02,35,14.90
2013,08,04,02,36,14.90
2013,08,04,02,37,14.90
2013,08,04,02,38,14.90
2013,08,04,02,39,14.90
2013,08,04,02,40,14.80
2013,08,04,02,41,14.80
2013,08,04,02,42,14.80
2013,08,04,02,43,14.80
2013,08,04,02,44,14.80
2013,08,04,02,45,14.80
2013,08,04,02,46,14.80
2013,08,04,02,47,14.80
2013,08,04,02,48,14.70
2013,08,04,02,49,14.70
2013,08,04,02,50,14.70
2013,08,04,02,51,14.70
2013,08,04,02,52,14.70
2013,08,04,02,53,14.70
2013,08,04,02,54,14.70
2013,08,04,02,55,14.60
2013,08,04,02,56,14.60
2013,08,04,02,57,14.60
2013,08,04,02,58,14.60
2013,08,04,02,59,14.50
2013,08,04,03,00,14.50
2013,08,04,03,01,14.50
2013,08,04,03,02,14.50
2013,08,04,03,03,14.50
2013,08,04,03,04,14.40
2013,08,04,03,05,14.40
2013,08,04,03,06,14.40
2013,08,04,03,07,14.40
2013,08,04,03,08,14.40
2013,08,04,03,09,14.40
2013,08,04,03,10,14.30
2013,08,04,03,11,14.30
2013,08,04,03,12,14.30
2013,08,04,03,13,14.30
2013,08,04,03,14,14.30
2013,08,04,03,15,14.30
2013,08,04,03,16,14.30
2013,08,04,03,17,14.30
2013,08,04,03,18,14.30
2013,08,04,03,19,14.30
2013,08,04,03,20,14.30
2013,08,04,03,21,14.30
2013,08,04,03,22,14.20
2013,08,04,03,23,14.20
2013,08,04,03,24,14.20
2013,08,04,03,25,14.20
2013,08,04,03,26,14.20
2013,08,04,03,27,14.20
2013,08,04,03,28,14.20
2013,08,04,03,29,14.20
2013,08,04,03,30,14.20
2013,08,04,03,31,14.20
2013,08,04,03,32,14.20
2013,08,04,03,33,14.20
2013,08,04,03,34,14.20
2013,08,04,03,35,14.20
2013,08,04,03,36,14.20
2013,08,04,03,37,14.20
2013,08,04,03,38,14.10
2013,08,04,03,39,14.10
2013,08,04,03,40,14.10
2013,08,04,03,41,14.10
2013,08,04,03,42,14.10
2013,08,04,03,43,14.10
2013,08,04,03,44,14.10
2013,08,04,03,45,14.10
2013,08,04,03,46,14.10
2013,08,04,03,47,14.10
2013,08,04,03,48,14.10
2013,08,04,03,49,14.00
2013,08,04,03,50,14.00
2013,08,04,03,51,14.00
2013,08,04,03,52,14.00
2013,08,04,03,53,14.00
2013,08,04,03,54,14.00
2013,08,04,03,55,14.00
2013,08,04,03,56,14.00
2013,08,04,03,57,13.90
2013,08,04,03,58,14.00
2013,08,04,03,59,13.90
2013,08,04,04,00,13.90
2013,08,04,04,01,13.90
2013,08,04,04,02,13.90
2013,08,04,04,03,13.90
2013,08,04,04,04,13.90
2013,08,04,04,05,13.90
2013,08,04,04,06,13.90
2013,08,04,04,07,13.80
2013,08,04,04,08,13.80
2013,08,04,04,09,13.80
2013,08,04,04,10,13.80
2013,08,04,04,11,13.80
2013,08,04,04,12,13.80
2013,08,04,04,13,13.80
2013,08,04,04,14,13.80
2013,08,04,04,15,13.80
2013,08,04,04,16,13.80
2013,08,04,04,17,13.80
2013,08,04,04,18,13.80
2013,08,04,04,19,13.80
2013,08,04,04,20,13.80
2013,08,04,04,21,13.70
2013,08,04,04,22,13.70
2013,08,04,04,23,13.70
2013,08,04,04,24,13.70
2013,08,04,04,25,13.70
2013,08,04,04,26,13.70
2013,08,04,04,27,13.70
2013,08,04,04,28,13.70
2013,08,04,04,29,13.70
2013,08,04,04,30,13.70
2013,08,04,04,31,13.70
2013,08,04,04,32,13.70
2013,08,04,04,33,13.70
2013,08,04,04,34,13.70
2013,08,04,04,35,13.60
2013,08,04,04,36,13.60
2013,08,04,04,37,13.60
2013,08,04,04,38,13.60
2013,08,04,04,39,13.60
2013,08,04,04,40,13.60
2013,08,04,04,41,13.60
2013,08,04,04,42,13.60
2013,08,04,04,43,13.60
2013,08,04,04,44,13.60
2013,08,04,04,45,13.60
2013,08,04,04,46,13.60
2013,08,04,04,47,13.60
2013,08,04,04,48,13.50
2013,08,04,04,49,13.50
2013,08,04,04,50,13.50
2013,08,04,04,51,13.50
2013,08,04,04,52,13.50
2013,08,04,04,53,13.40
2013,08,04,04,54,13.40
2013,08,04,04,55,13.40
2013,08,04,04,56,13.40
2013,08,04,04,57,13.40
2013,08,04,04,58,13.30
2013,08,04,04,59,13.30
2013,08,04,05,00,13.30
2013,08,04,05,01,13.30
2013,08,04,05,02,13.30
2013,08,04,05,03,13.30
2013,08,04,05,04,13.30
2013,08,04,05,05,13.30
2013,08,04,05,06,13.30
2013,08,04,05,07,13.30
2013,08,04,05,08,13.20
2013,08,04,05,09,13.20
2013,08,04,05,10,13.20
2013,08,04,05,11,13.20
2013,08,04,05,12,13.20
2013,08,04,05,13,13.20
2013,08,04,05,14,13.20
2013,08,04,05,15,13.10
2013,08,04,05,16,13.10
2013,08,04,05,17,13.10
2013,08,04,05,18,13.10
2013,08,04,05,19,13.10
2013,08,04,05,20,13.10
2013,08,04,05,21,13.10
2013,08,04,05,22,13.10
2013,08,04,05,23,13.10
2013,08,04,05,24,13.10
2013,08,04,05,25,13.10
2013,08,04,05,26,13.10
2013,08,04,05,27,13.10
2013,08,04,05,28,13.10
2013,08,04,05,29,13.10
2013,08,04,05,30,13.00
2013,08,04,05,31,12.90
2013,08,04,05,32,12.90
2013,08,04,05,33,12.90
2013,08,04,05,34,12.90
2013,08,04,05,35,12.90
2013,08,04,05,36,12.90
2013,08,04,05,37,12.90
2013,08,04,05,38,12.90
2013,08,04,05,39,13.00
2013,08,04,05,40,12.90
2013,08,04,05,41,12.90
2013,08,04,05,42,12.90
2013,08,04,05,43,12.90
2013,08,04,05,44,12.90
2013,08,04,05,45,12.90
2013,08,04,05,46,12.90
2013,08,04,05,47,12.90
2013,08,04,05,48,12.90
2013,08,04,05,49,12.90
2013,08,04,05,50,12.90
2013,08,04,05,51,12.90
2013,08,04,05,52,12.90
2013,08,04,05,53,12.90
2013,08,04,05,54,12.90
2013,08,04,05,55,12.80
2013,08,04,05,56,12.80
2013,08,04,05,57,12.80
2013,08,04,05,58,12.80
2013,08,04,05,59,12.80
2013,08,04,06,00,12.80
2013,08,04,06,01,12.80
2013,08,04,06,02,12.80
2013,08,04,06,03,12.80
2013,08,04,06,04,12.80
2013,08,04,06,05,12.80
2013,08,04,06,06,12.80
2013,08,04,06,07,12.80
2013,08,04,06,08,12.80
2013,08,04,06,09,12.80
2013,08,04,06,10,12.80
2013,08,04,06,11,12.80
2013,08,04,06,12,12.80
2013,08,04,06,13,12.80
2013,08,04,06,14,12.80
2013,08,04,06,15,12.80
2013,08,04,06,16,12.80
2013,08,04,06,17,12.80
2013,08,04,06,18,12.80
2013,08,04,06,19,12.80
2013,08,04,06,20,12.80
2013,08,04,06,21,12.80
2013,08,04,06,22,12.80
2013,08,04,06,23,12.80
2013,08,04,06,24,12.80
2013,08,04,06,25,12.80
2013,08,04,06,26,12.80
2013,08,04,06,27,12.80
2013,08,04,06,28,12.90
2013,08,04,06,29,12.90
2013,08,04,06,30,12.90
2013,08,04,06,31,12.90
2013,08,04,06,32,13.00
2013,08,04,06,33,13.00
2013,08,04,06,34,13.10
2013,08,04,06,35,13.10
2013,08,04,06,36,13.10
2013,08,04,06,37,13.10
2013,08,04,06,38,13.20
2013,08,04,06,39,13.20
2013,08,04,06,40,13.20
2013,08,04,06,41,13.20
2013,08,04,06,42,13.20
2013,08,04,06,43,13.30
2013,08,04,06,44,13.30
2013,08,04,06,45,13.30
2013,08,04,06,46,13.30
2013,08,04,06,47,13.40
2013,08,04,06,48,13.40
2013,08,04,06,49,13.40
2013,08,04,06,50,13.40
2013,08,04,06,51,13.40
2013,08,04,06,52,13.50
2013,08,04,06,53,13.50
2013,08,04,06,54,13.50
2013,08,04,06,55,13.60
2013,08,04,06,56,13.60
2013,08,04,06,57,13.60
2013,08,04,06,58,13.60
2013,08,04,06,59,13.60
2013,08,04,07,00,13.70
2013,08,04,07,01,13.70
2013,08,04,07,02,13.70
2013,08,04,07,03,13.70
2013,08,04,07,04,13.70
2013,08,04,07,05,13.80
2013,08,04,07,06,13.80
2013,08,04,07,07,13.80
2013,08,04,07,08,13.80
2013,08,04,07,09,13.80
2013,08,04,07,10,13.90
2013,08,04,07,11,13.90
2013,08,04,07,12,13.90
2013,08,04,07,13,14.00
2013,08,04,07,14,14.00
2013,08,04,07,15,14.00
2013,08,04,07,16,14.10
2013,08,04,07,17,14.10
2013,08,04,07,18,14.10
2013,08,04,07,19,14.10
2013,08,04,07,20,14.20
2013,08,04,07,21,14.20
2013,08,04,07,22,14.20
2013,08,04,07,23,14.20
2013,08,04,07,24,14.30
2013,08,04,07,25,14.30
2013,08,04,07,26,14.30
2013,08,04,07,27,14.30
2013,08,04,07,28,14.30
2013,08,04,07,29,14.40
2013,08,04,07,30,14.40
2013,08,04,07,31,14.40
2013,08,04,07,32,14.40
2013,08,04,07,33,14.40
2013,08,04,07,34,14.40
2013,08,04,07,35,14.50
2013,08,04,07,36,14.50
2013,08,04,07,37,14.50
2013,08,04,07,38,14.50
2013,08,04,07,39,14.50
2013,08,04,07,40,14.50
2013,08,04,07,41,14.50
2013,08,04,07,42,14.50
2013,08,04,07,43,14.60
2013,08,04,07,44,14.60
2013,08,04,07,45,14.60
2013,08,04,07,46,14.60
2013,08,04,07,47,14.60
2013,08,04,07,48,14.60
2013,08,04,07,49,14.60
2013,08,04,07,50,14.60
2013,08,04,07,51,14.70
2013,08,04,07,52,14.70
2013,08,04,07,53,14.70
2013,08,04,07,54,14.70
2013,08,04,07,55,14.70
2013,08,04,07,56,14.80
2013,08,04,07,57,14.80
2013,08,04,07,58,14.90
2013,08,04,07,59,14.90
2013,08,04,08,00,15.00
2013,08,04,08,01,15.10
2013,08,04,08,02,15.10
2013,08,04,08,03,15.20
2013,08,04,08,04,15.30
2013,08,04,08,05,15.30
2013,08,04,08,06,15.30
2013,08,04,08,07,15.30
2013,08,04,08,08,15.30
2013,08,04,08,09,15.30
2013,08,04,08,10,15.30
2013,08,04,08,11,15.30
2013,08,04,08,12,15.30
2013,08,04,08,13,15.30
2013,08,04,08,14,15.40
2013,08,04,08,15,15.40
2013,08,04,08,16,15.40
2013,08,04,08,17,15.40
2013,08,04,08,18,15.40
2013,08,04,08,19,15.40
2013,08,04,08,20,15.40
2013,08,04,08,21,15.40
2013,08,04,08,22,15.40
2013,08,04,08,23,15.40
2013,08,04,08,24,15.30
2013,08,04,08,25,15.40
2013,08,04,08,26,15.40
2013,08,04,08,27,15.40
2013,08,04,08,28,15.40
2013,08,04,08,29,15.40
2013,08,04,08,30,15.40
2013,08,04,08,31,15.40
2013,08,04,08,32,15.40
2013,08,04,08,33,15.40
2013,08,04,08,34,15.40
2013,08,04,08,35,15.40
2013,08,04,08,36,15.50
2013,08,04,08,37,15.50
2013,08,04,08,38,15.50
2013,08,04,08,39,15.60
2013,08,04,08,40,15.60
2013,08,04,08,41,15.60
2013,08,04,08,42,15.60
2013,08,04,08,43,15.70
2013,08,04,08,44,15.70
2013,08,04,08,45,15.70
2013,08,04,08,46,15.80
2013,08,04,08,47,15.80
2013,08,04,08,48,15.80
2013,08,04,08,49,15.90
2013,08,04,08,50,16.00
2013,08,04,08,51,16.10
2013,08,04,08,52,16.10
2013,08,04,08,53,16.20
2013,08,04,08,54,16.20
2013,08,04,08,55,16.20
2013,08,04,08,56,16.20
2013,08,04,08,57,16.20
2013,08,04,08,58,16.30
2013,08,04,08,59,16.30
2013,08,04,09,00,16.40
2013,08,04,09,01,16.50
2013,08,04,09,02,16.70
2013,08,04,09,03,16.80
2013,08,04,09,04,16.90
2013,08,04,09,05,17.00
2013,08,04,09,06,17.10
2013,08,04,09,07,17.20
2013,08,04,09,08,17.30
2013,08,04,09,09,17.40
2013,08,04,09,10,17.50
2013,08,04,09,11,17.60
2013,08,04,09,12,17.60
2013,08,04,09,13,17.70
2013,08,04,09,14,17.70
2013,08,04,09,15,17.80
2013,08,04,09,16,17.90
2013,08,04,09,17,17.90
2013,08,04,09,18,17.90
2013,08,04,09,19,18.00
2013,08,04,09,20,18.00
2013,08,04,09,21,18.00
2013,08,04,09,22,18.00
2013,08,04,09,23,18.10
2013,08,04,09,24,18.10
2013,08,04,09,25,18.10
2013,08,04,09,26,18.10
2013,08,04,09,27,18.20
2013,08,04,09,28,18.20
2013,08,04,09,29,18.30
2013,08,04,09,30,18.30
2013,08,04,09,31,18.50
2013,08,04,09,32,18.60
2013,08,04,09,33,18.70
2013,08,04,09,34,18.80
2013,08,04,09,35,19.00
2013,08,04,09,36,19.10
2013,08,04,09,37,19.10
2013,08,04,09,38,19.20
2013,08,04,09,39,19.20
2013,08,04,09,40,19.20
2013,08,04,09,41,19.30
2013,08,04,09,42,19.30
2013,08,04,09,43,19.30
2013,08,04,09,44,19.30
2013,08,04,09,45,19.40
2013,08,04,09,46,19.40
2013,08,04,09,47,19.40
2013,08,04,09,48,19.40
2013,08,04,09,49,19.40
2013,08,04,09,50,19.40
2013,08,04,09,51,19.50
2013,08,04,09,52,19.50
2013,08,04,09,53,19.60
2013,08,04,09,54,19.70
2013,08,04,09,55,19.80
2013,08,04,09,56,19.90
2013,08,04,09,57,19.90
2013,08,04,09,58,20.00
2013,08,04,09,59,20.00
2013,08,04,10,00,20.10
2013,08,04,10,01,20.10
2013,08,04,10,02,20.20
2013,08,04,10,03,20.30
2013,08,04,10,04,20.30
2013,08,04,10,05,20.40
2013,08,04,10,06,20.40
2013,08,04,10,07,20.40
2013,08,04,10,08,20.40
2013,08,04,10,09,20.40
2013,08,04,10,10,20.40
2013,08,04,10,11,20.40
2013,08,04,10,12,20.40
2013,08,04,10,13,20.50
2013,08,04,10,14,20.50
2013,08,04,10,15,20.50
2013,08,04,10,16,20.60
2013,08,04,10,17,20.60
2013,08,04,10,18,20.60
2013,08,04,10,19,20.60
2013,08,04,10,20,20.60
2013,08,04,10,21,20.70
2013,08,04,10,22,20.70
2013,08,04,10,23,20.70
2013,08,04,10,24,20.80
2013,08,04,10,25,20.80
2013,08,04,10,26,20.90
2013,08,04,10,27,21.00
2013,08,04,10,28,21.10
2013,08,04,10,29,21.20
2013,08,04,10,30,21.40
2013,08,04,10,31,21.40
2013,08,04,10,32,21.50
2013,08,04,10,33,21.50
2013,08,04,10,34,21.50
2013,08,04,10,35,21.60
2013,08,04,10,36,21.70
2013,08,04,10,37,21.90
2013,08,04,10,38,21.90
2013,08,04,10,39,22.00
2013,08,04,10,40,22.00
2013,08,04,10,41,22.00
2013,08,04,10,42,22.00
2013,08,04,10,43,22.10
2013,08,04,10,44,22.10
2013,08,04,10,45,22.00
2013,08,04,10,46,22.00
2013,08,04,10,47,22.00
2013,08,04,10,48,22.00
2013,08,04,10,49,22.00
2013,08,04,10,50,22.00
2013,08,04,10,51,22.00
2013,08,04,10,52,22.00
2013,08,04,10,53,22.00
2013,08,04,10,54,22.00
2013,08,04,10,55,22.00
2013,08,04,10,56,22.00
2013,08,04,10,57,22.00
2013,08,04,10,58,22.10
2013,08,04,10,59,22.20
2013,08,04,11,00,22.30
2013,08,04,11,01,22.50
2013,08,04,11,02,22.60
2013,08,04,11,03,22.70
2013,08,04,11,04,22.80
2013,08,04,11,05,22.90
2013,08,04,11,06,22.90
2013,08,04,11,07,22.90
2013,08,04,11,08,22.90
2013,08,04,11,09,22.80
2013,08,04,11,10,22.80
2013,08,04,11,11,22.80
2013,08,04,11,12,22.80
2013,08,04,11,13,22.90
2013,08,04,11,14,22.90
2013,08,04,11,15,23.00
2013,08,04,11,16,23.00
2013,08,04,11,17,23.00
2013,08,04,11,18,23.00
2013,08,04,11,19,23.00
2013,08,04,11,20,23.10
2013,08,04,11,21,23.10
2013,08,04,11,22,23.20
2013,08,04,11,23,23.20
2013,08,04,11,24,23.30
2013,08,04,11,25,23.30
2013,08,04,11,26,23.30
2013,08,04,11,27,23.30
2013,08,04,11,28,23.40
2013,08,04,11,29,23.50
2013,08,04,11,30,23.60
2013,08,04,11,31,23.70
2013,08,04,11,32,23.70
2013,08,04,11,33,23.80
2013,08,04,11,34,23.80
2013,08,04,11,35,23.90
2013,08,04,11,36,24.00
2013,08,04,11,37,24.00
2013,08,04,11,38,24.10
2013,08,04,11,39,24.20
2013,08,04,11,40,24.20
2013,08,04,11,41,24.30
2013,08,04,11,42,24.30
2013,08,04,11,43,24.30
2013,08,04,11,44,24.30
2013,08,04,11,45,24.30
2013,08,04,11,46,24.30
2013,08,04,11,47,24.40
2013,08,04,11,48,24.50
2013,08,04,11,49,24.60
2013,08,04,11,50,24.70
2013,08,04,11,51,24.70
2013,08,04,11,52,24.70
2013,08,04,11,53,24.70
2013,08,04,11,54,24.80
2013,08,04,11,55,24.90
2013,08,04,11,56,24.90
2013,08,04,11,57,24.90
2013,08,04,11,58,24.90
2013,08,04,11,59,24.90
2013,08,04,12,00,24.90
2013,08,04,12,01,24.90
2013,08,04,12,02,24.90
2013,08,04,12,03,24.80
2013,08,04,12,04,24.80
2013,08,04,12,05,24.80
2013,08,04,12,06,24.80
2013,08,04,12,07,24.90
2013,08,04,12,08,24.90
2013,08,04,12,09,24.80
2013,08,04,12,10,24.80
2013,08,04,12,11,24.80
2013,08,04,12,12,24.90
2013,08,04,12,13,25.00
2013,08,04,12,14,25.00
2013,08,04,12,15,25.00
2013,08,04,12,16,25.10
2013,08,04,12,17,25.10
2013,08,04,12,18,25.10
2013,08,04,12,19,25.20
2013,08,04,12,20,25.20
2013,08,04,12,21,25.30
2013,08,04,12,22,25.40
2013,08,04,12,23,25.50
2013,08,04,12,24,25.60
2013,08,04,12,25,25.70
2013,08,04,12,26,25.80
2013,08,04,12,27,25.80
2013,08,04,12,28,25.80
2013,08,04,12,29,25.80
2013,08,04,12,30,25.80
2013,08,04,12,31,25.80
2013,08,04,12,32,25.80
2013,08,04,12,33,25.80
2013,08,04,12,34,25.90
2013,08,04,12,35,25.90
2013,08,04,12,36,25.90
2013,08,04,12,37,25.80
2013,08,04,12,38,25.80
2013,08,04,12,39,25.80
2013,08,04,12,40,25.80
2013,08,04,12,41,25.90
2013,08,04,12,42,25.90
2013,08,04,12,43,25.90
2013,08,04,12,44,25.90
2013,08,04,12,45,25.90
2013,08,04,12,46,25.90
2013,08,04,12,47,26.00
2013,08,04,12,48,26.00
2013,08,04,12,49,26.10
2013,08,04,12,50,26.20
2013,08,04,12,51,26.30
2013,08,04,12,52,26.40
2013,08,04,12,53,26.50
2013,08,04,12,54,26.60
2013,08,04,12,55,26.60
2013,08,04,12,56,26.70
2013,08,04,12,57,26.80
2013,08,04,12,58,26.90
2013,08,04,12,59,26.90
2013,08,04,13,00,27.00
2013,08,04,13,01,27.10
2013,08,04,13,02,27.20
2013,08,04,13,03,27.10
2013,08,04,13,04,27.10
2013,08,04,13,05,27.10
2013,08,04,13,06,27.10
2013,08,04,13,07,27.10
2013,08,04,13,08,27.00
2013,08,04,13,09,26.90
2013,08,04,13,10,26.90
2013,08,04,13,11,26.90
2013,08,04,13,12,26.90
2013,08,04,13,13,26.90
2013,08,04,13,14,27.00
2013,08,04,13,15,27.10
2013,08,04,13,16,27.10
2013,08,04,13,17,27.10
2013,08,04,13,18,27.10
2013,08,04,13,19,27.00
2013,08,04,13,20,27.10
2013,08,04,13,21,27.10
2013,08,04,13,22,27.20
2013,08,04,13,23,27.20
2013,08,04,13,24,27.20
2013,08,04,13,25,27.10
2013,08,04,13,26,27.00
2013,08,04,13,27,27.00
2013,08,04,13,28,27.10
2013,08,04,13,29,27.10
2013,08,04,13,30,27.20
2013,08,04,13,31,27.20
2013,08,04,13,32,27.20
2013,08,04,13,33,27.10
2013,08,04,13,34,27.00
2013,08,04,13,35,27.00
2013,08,04,13,36,27.00
2013,08,04,13,37,27.00
2013,08,04,13,38,27.10
2013,08,04,13,39,27.10
2013,08,04,13,40,27.20
2013,08,04,13,41,27.20
2013,08,04,13,42,27.10
2013,08,04,13,43,27.10
2013,08,04,13,44,27.10
2013,08,04,13,45,27.10
2013,08,04,13,46,27.10
2013,08,04,13,47,27.20
2013,08,04,13,48,27.30
2013,08,04,13,49,27.40
2013,08,04,13,50,27.50
2013,08,04,13,51,27.70
2013,08,04,13,52,27.80
2013,08,04,13,53,27.80
2013,08,04,13,54,27.90
2013,08,04,13,55,28.10
2013,08,04,13,56,28.10
2013,08,04,13,57,28.10
2013,08,04,13,58,28.10
2013,08,04,13,59,28.20
2013,08,04,14,00,28.30
2013,08,04,14,01,28.30
2013,08,04,14,02,28.30
2013,08,04,14,03,28.30
2013,08,04,14,04,28.30
2013,08,04,14,05,28.30
2013,08,04,14,06,28.30
2013,08,04,14,07,28.30
2013,08,04,14,08,28.30
2013,08,04,14,09,28.30
2013,08,04,14,10,28.30
2013,08,04,14,11,28.30
2013,08,04,14,12,28.30
2013,08,04,14,13,28.30
2013,08,04,14,14,28.30
2013,08,04,14,15,28.20
2013,08,04,14,16,28.20
2013,08,04,14,17,28.20
2013,08,04,14,18,28.20
2013,08,04,14,19,28.20
2013,08,04,14,20,28.20
2013,08,04,14,21,28.10
2013,08,04,14,22,28.10
2013,08,04,14,23,28.10
2013,08,04,14,24,28.20
2013,08,04,14,25,28.20
2013,08,04,14,26,28.20
2013,08,04,14,27,28.20
2013,08,04,14,28,28.10
2013,08,04,14,29,28.10
2013,08,04,14,30,28.10
2013,08,04,14,31,28.10
2013,08,04,14,32,28.10
2013,08,04,14,33,28.10
2013,08,04,14,34,28.10
2013,08,04,14,35,28.10
2013,08,04,14,36,28.10
2013,08,04,14,37,28.10
2013,08,04,14,38,28.10
2013,08,04,14,39,28.10
2013,08,04,14,40,28.10
2013,08,04,14,41,28.10
2013,08,04,14,42,28.20
2013,08,04,14,43,28.30
2013,08,04,14,44,28.30
2013,08,04,14,45,28.30
2013,08,04,14,46,28.20
2013,08,04,14,47,28.20
2013,08,04,14,48,28.30
2013,08,04,14,49,28.30
2013,08,04,14,50,28.30
2013,08,04,14,51,28.30
2013,08,04,14,52,28.30
2013,08,04,14,53,28.40
2013,08,04,14,54,28.40
2013,08,04,14,55,28.40
2013,08,04,14,56,28.40
2013,08,04,14,57,28.40
2013,08,04,14,58,28.30
2013,08,04,14,59,28.30
2013,08,04,15,00,28.20
2013,08,04,15,01,28.20
2013,08,04,15,02,28.20
2013,08,04,15,03,28.20
2013,08,04,15,04,28.20
2013,08,04,15,05,28.20
2013,08,04,15,06,28.20
2013,08,04,15,07,28.20
2013,08,04,15,08,28.20
2013,08,04,15,09,28.30
2013,08,04,15,10,28.30
2013,08,04,15,11,28.40
2013,08,04,15,12,28.40
2013,08,04,15,13,28.50
2013,08,04,15,14,28.60
2013,08,04,15,15,28.60
2013,08,04,15,16,28.60
2013,08,04,15,17,28.60
2013,08,04,15,18,28.60
2013,08,04,15,19,28.60
2013,08,04,15,20,28.70
2013,08,04,15,21,28.70
2013,08,04,15,22,28.70
2013,08,04,15,23,28.80
2013,08,04,15,24,28.80
2013,08,04,15,25,28.80
2013,08,04,15,26,28.70
2013,08,04,15,27,28.70
2013,08,04,15,28,28.70
2013,08,04,15,29,28.70
2013,08,04,15,30,28.70
2013,08,04,15,31,28.70
2013,08,04,15,32,28.60
2013,08,04,15,33,28.60
2013,08,04,15,34,28.50
2013,08,04,15,35,28.50
2013,08,04,15,36,28.50
2013,08,04,15,37,28.40
2013,08,04,15,38,28.40
2013,08,04,15,39,28.50
2013,08,04,15,40,28.50
2013,08,04,15,41,28.50
2013,08,04,15,42,28.50
2013,08,04,15,43,28.60
2013,08,04,15,44,28.60
2013,08,04,15,45,28.70
2013,08,04,15,46,28.60
2013,08,04,15,47,28.60
2013,08,04,15,48,28.60
2013,08,04,15,49,28.60
2013,08,04,15,50,28.60
2013,08,04,15,51,28.60
2013,08,04,15,52,28.60
2013,08,04,15,53,28.70
2013,08,04,15,54,28.80
2013,08,04,15,55,28.80
2013,08,04,15,56,28.80
2013,08,04,15,57,28.70
2013,08,04,15,58,28.70
2013,08,04,15,59,28.70
2013,08,04,16,00,28.60
2013,08,04,16,01,28.60
2013,08,04,16,02,28.60
2013,08,04,16,03,28.60
2013,08,04,16,04,28.70
2013,08,04,16,05,28.80
2013,08,04,16,06,28.80
2013,08,04,16,07,28.90
2013,08,04,16,08,28.90
2013,08,04,16,09,28.90
2013,08,04,16,10,29.00
2013,08,04,16,11,29.10
2013,08,04,16,12,29.20
2013,08,04,16,13,29.20
2013,08,04,16,14,29.30
2013,08,04,16,15,29.30
2013,08,04,16,16,29.30
2013,08,04,16,17,29.20
2013,08,04,16,18,29.20
2013,08,04,16,19,29.10
2013,08,04,16,20,29.10
2013,08,04,16,21,29.10
2013,08,04,16,22,29.10
2013,08,04,16,23,29.10
2013,08,04,16,24,29.10
2013,08,04,16,25,29.00
2013,08,04,16,26,28.90
2013,08,04,16,27,28.90
2013,08,04,16,28,28.90
2013,08,04,16,29,29.00
2013,08,04,16,30,29.00
2013,08,04,16,31,29.00
2013,08,04,16,32,28.90
2013,08,04,16,33,28.90
2013,08,04,16,34,28.80
2013,08,04,16,35,28.70
2013,08,04,16,36,28.70
2013,08,04,16,37,28.60
2013,08,04,16,38,28.60
2013,08,04,16,39,28.60
2013,08,04,16,40,28.50
2013,08,04,16,41,28.50
2013,08,04,16,42,28.50
2013,08,04,16,43,28.40
2013,08,04,16,44,28.40
2013,08,04,16,45,28.40
2013,08,04,16,46,28.40
2013,08,04,16,47,28.30
2013,08,04,16,48,28.30
2013,08,04,16,49,28.30
2013,08,04,16,50,28.30
2013,08,04,16,51,28.30
2013,08,04,16,52,28.20
2013,08,04,16,53,28.20
2013,08,04,16,54,28.20
2013,08,04,16,55,28.20
2013,08,04,16,56,28.20
2013,08,04,16,57,28.20
2013,08,04,16,58,28.20
2013,08,04,16,59,28.20
2013,08,04,17,00,28.20
2013,08,04,17,01,28.10
2013,08,04,17,02,28.10
2013,08,04,17,03,28.10
2013,08,04,17,04,28.10
2013,08,04,17,05,28.10
2013,08,04,17,06,28.10
2013,08,04,17,07,28.10
2013,08,04,17,08,28.00
2013,08,04,17,09,27.90
2013,08,04,17,10,27.90
2013,08,04,17,11,27.90
2013,08,04,17,12,27.90
2013,08,04,17,13,27.90
2013,08,04,17,14,27.90
2013,08,04,17,15,27.90
2013,08,04,17,16,27.80
2013,08,04,17,17,27.80
2013,08,04,17,18,27.80
2013,08,04,17,19,27.70